Back to catalog

STARLINK-5833

AliveCommunicationsVLEO
NORAD 55773·PAYLOAD·🇺🇸 United States

Launched Mar 3, 2023 from Vandenberg Space Force Base

Loading…

Next Passes (next 24 hours)

TLE

FreshSource: CelesTrak SupGP

Epoch: Sep 14, 2026, 21:57 UTC

1 55773C 23028AJ  26257.91506944 -.00037178  00000+0 -31141-2 0  2578
2 55773  70.0001 107.4338 0003103 272.2031 143.9976 14.98368218    17

Track STARLINK-5833 in real time with AllMySat

Download on the App Store